Daily Data: Northwest Mesa

   
9/24/17
Time         Wind Dir   Wind Spd  Wind Gust   Humidity       Temp  Dew Point   Barom SL  DailyRain   HourRain   RainRate
                            mph        mph          %         F         F         in         in         in      in/hr
12:00am           287          0          0         33       64.8       35.0      29.68       0.00       0.00      0.000
12:05am           287          0          0         33       64.7       35.0      29.68       0.00       0.00      0.000
12:10am           287          0          0         34       64.5       35.5      29.68       0.00       0.00      0.000
12:15am           287          0          0         34       64.3       35.4      29.68       0.00       0.00      0.000
12:20am           287          0          0         34       64.2       35.3      29.68       0.00       0.00      0.000
12:25am           287          0          0         34       63.9       35.0      29.68       0.00       0.00      0.000
12:30am           287          0          0         34       63.5       34.7      29.68       0.00       0.00      0.000
12:35am           288          0          0         39       63.4       38.0      29.68       0.00       0.00      0.000
12:40am           287          0          0         40       63.5       38.8      29.68       0.00       0.00      0.000
12:45am           287          0          0         36       63.7       36.3      29.69       0.00       0.00      0.000
12:50am           287          0          0         35       63.9       35.7      29.69       0.00       0.00      0.000
12:55am           287          0          0         35       63.7       35.6      29.69       0.00       0.00      0.000
1:00am            287          0          0         34       63.5       34.7      29.68       0.00       0.00      0.000
1:05am            287          0          0         33       63.2       33.6      29.68       0.00       0.00      0.000
1:10am            287          0          0         33       63.2       33.6      29.68       0.00       0.00      0.000
1:15am            287          0          0         33       62.9       33.4      29.69       0.00       0.00      0.000
1:20am            287          0          0         33       62.7       33.2      29.69       0.00       0.00      0.000
1:25am            287          0          0         33       62.6       33.1      29.69       0.00       0.00      0.000
1:30am            287          0          0         32       62.4       32.2      29.69       0.00       0.00      0.000
1:35am            287          0          0         31       62.4       31.4      29.69       0.00       0.00      0.000